Location: Potawatomi Wildlife Park
(41.2308°N, 86.1050°W)
Time: 01:27:03
(UTC-04:00)

Hubble Space Telescope - Visible Passes

Search period start: 29 June 2016 00:00
Search period end: 09 July 2016 00:00
Orbit: 539 x 543 km, 28.5° (Epoch: 27 June)

Date Brightness Start Highest point End Pass type
(mag) Time Alt. Az. Time Alt. Az. Time Alt. Az.
01 Jul 2.9 22:54:01 10° SSW 22:54:58 12° S 22:54:58 12° S visible
02 Jul 2.7 22:44:02 10° SSW 22:46:01 14° S 22:46:01 14° S visible
03 Jul 2.7 22:34:09 10° SSW 22:36:19 14° S 22:36:56 13° S visible
04 Jul 2.7 22:24:20 10° SSW 22:26:29 14° S 22:27:45 12° SSE visible
05 Jul 2.8 22:14:36 10° SW 22:16:39 13° S 22:18:30 11° SSE visible
06 Jul 2.9 22:04:58 10° SW 22:06:49 13° S 22:08:40 10° SSE visible
07 Jul 3.0 21:55:28 10° SSW 21:56:59 12° S 21:58:29 10° SSE visible
